Tracking 20037 objects as of 20-Nov-2019
Live streaming from Space Station
objects crossing your sky now

COSMOS 1375 DEB

Track COSMOS 1375 DEB now!
10-day predictions


NORAD ID: 17803
Int'l Code: 1982-055AV
Perigee: 938.0 km
Apogee: 1,007.2 km
Inclination: 65.8 °
Period: 104.4 minutes
Semi major axis: 7343 km
RCS: 0.014 m2 (small)
Launch date: June 6, 1982
Source: Commonwealth of Independent States (former USSR) (CIS)
Launch site: PLESETSK MISSILE AND SPACE COMPLEX (PKMTR)

Note: This is SATELLITE DEBRIS
aabbcc
Your satellite tracking list
Your tracking list is empty




NASA's NSSDC Master Catalog

Two Line Element Set (TLE):
1 17803U 82055AV  19324.25989194 -.00000005  00000-0  73258-4 0  9990
2 17803  65.8324  91.2229 0047133 325.5659 109.8710 13.79550318712577
Source of the keplerian elements: AFSPC